Location: Unspecified
(41.5000°N, 0.0000°E)
Time: 20:14:08
(UTC+00:00)

Vanguard 2 - Pass Details

Date: 24 June 2019
Orbit: 553 x 2938 km, 32.9° (Epoch: 22 July)

Event Time Altitude Azimuth Distance (km) Brightness Sun altitude
Rises 08:26:58 0° 242° (WSW) 3,024 10.2 42.0°
Reaches altitude 10° 08:29:07 10° 233° (SW) 2,275 9.7 42.4°
Maximum altitude 08:33:58 37° 166° (SSE) 1,468 9.6 43.3°
Drops below altitude 10° 08:41:23 10° 103° (ESE) 3,501 12.0 44.7°
Sets 08:45:29 0° 96° (E) 4,909 12.4 45.4°
